ECHOSTAR 25

Last updated on Sun Apr 12 2026 00:02:57 GMT+0000 (Coordinated Universal Time)

1 68126U 26045A 26101.49521060 .00000059 00000+0 00000+0 0 9999 2 68126 0.0206 288.7714 0002126 154.7375 165.6265 1.00272855 329
UTC large
Height (km)
Speed (km/s)
/
Latitude / Longitude
Inclination (degrees)
Orbital Period (minutes)
Azimuth
Elevation
Range (km)
Doppler Factor

Next 0 passes for location: London (51.5072 / 0.1276)

Sorry there are no passes over London.
ECHOSTAR 25